Wind_Speed
16 15 13 12 9 9 12 16 19 20 21 20 21 20 18 18 16 15 13 11 11 10 9 8 7 6 5 4 3 2 2 2 1 1 1 0 1 1 1 2 2 2 3
15 14 12 11 9 9 12 15 18 19 21 20 21 20 18 19 18 16 15 13 12 11 10 9 8 7 5 4 4 3 2 2 1 1 1 1 1 2 3 3 3 3 3
14 13 12 10 8 8 11 15 16 18 20 21 22 21 19 20 18 16 16 14 13 13 11 10 9 7 6 5 4 3 3 2 2 1 2 2 2 2 3 3 3 3 4
13 12 11 9 7 7 9 12 16 17 19 21 21 20 20 20 20 18 16 16 15 14 12 11 10 8 7 5 5 4 3 3 2 2 3 3 3 3 4 4 5 5 5
12 11 10 7 6 6 8 10 15 18 21 21 21 21 20 20 20 19 18 17 16 14 13 12 11 9 8 7 6 5 5 4 4 3 4 4 5 5 5 6 6 7 7
11 10 9 8 6 5 6 9 14 17 18 20 21 21 20 19 20 19 19 18 16 15 14 13 11 10 8 8 7 6 6 5 5 5 5 5 6 7 7 7 8 8 9
10 9 8 7 5 5 6 9 13 15 17 18 19 19 19 19 19 19 19 19 17 16 15 14 12 10 9 9 8 8 8 8 8 8 7 8 8 9 9 9 10 10 10
10 8 7 6 4 4 6 8 12 15 17 18 19 20 19 19 18 19 19 18 17 16 15 14 13 12 11 10 10 10 10 11 11 11 11 11 11 11 12 12 12 13 13
10 8 6 5 3 3 6 8 10 13 15 16 17 18 17 18 18 18 18 17 17 17 16 16 15 14 13 13 13 13 13 14 13 13 14 14 14 14 14 15 15 16 16
9 8 6 5 4 4 5 8 10 12 14 15 16 17 18 19 19 19 19 18 18 18 18 18 17 16 16 16 16 16 16 16 16 16 17 17 18 18 18 18 18 19 19
8 8 6 4 4 4 5 8 11 13 13 14 14 17 18 19 20 20 19 19 19 19 20 20 19 19 19 19 19 19 19 20 20 20 20 20 21 21 22 21 21 22 22
9 9 8 6 5 6 6 7 11 13 13 13 13 15 18 19 20 20 20 20 20 20 20 21 21 21 21 21 21 22 22 23 23 23 23 24 24 24 24 24 24 24 24
11 10 9 8 7 7 7 7 9 12 14 14 14 15 17 19 19 20 21 21 21 21 21 22 21 22 22 22 23 24 25 26 26 26 26 27 27 27 27 27 27 27 28
11 11 11 10 9 8 8 9 9 11 13 14 15 15 16 17 18 19 21 22 22 22 23 23 23 23 24 24 25 26 27 28 28 29 29 29 30 30 30 30 30 30 31
12 12 11 11 10 9 9 10 10 12 12 13 14 15 16 16 17 18 20 22 23 23 24 24 25 26 26 27 28 29 30 30 30 31 32 32 33 32 33 33 33 34 34
12 12 12 12 11 11 11 11 11 12 13 14 15 16 17 18 19 20 21 22 23 24 26 27 27 28 29 30 30 30 31 32 33 33 34 35 36 36 37 37 36 36 36
14 14 14 13 13 13 13 14 13 14 15 15 16 17 18 18 20 21 22 23 25 26 27 28 29 31 32 33 33 34 35 35 35 35 36 37 38 39 38 38 38 37 38
16 15 15 15 15 14 14 15 17 17 18 18 18 18 19 20 21 22 23 25 27 28 30 31 32 32 34 35 37 38 38 37 37 38 39 39 40 41 41 40 40 41 41
18 18 18 17 17 17 16 16 17 19 20 21 21 21 21 22 23 25 26 27 29 30 31 32 33 34 34 35 37 38 38 39 39 39 40 41 41 42 42 43 42 43 43
20 19 19 19 19 19 19 19 19 20 21 22 22 23 24 25 26 27 29 30 30 32 32 31 33 34 35 37 38 39 40 41 41 42 42 43 43 44 45 45 45 45 46
21 21 21 20 20 20 21 21 21 21 22 23 24 24 26 27 28 29 30 30 31 32 33 34 35 36 37 38 39 40 41 41 42 43 44 44 45 46 46 46 46 47 48
22 22 22 22 22 22 22 22 22 23 24 24 26 26 27 28 29 30 31 32 32 34 36 36 38 39 39 40 41 42 42 42 44 44 45 46 46 46 46 47 47 48 50
23 22 23 22 22 23 23 23 24 24 25 26 28 29 30 30 31 32 33 34 35 36 37 37 39 40 41 40 41 41 42 43 44 45 45 46 47 48 49 49 50 51 52
24 23 23 23 24 24 24 25 26 26 27 28 28 29 30 31 32 32 33 34 35 36 37 38 39 40 41 41 41 42 44 45 46 47 48 49 50 51 51 52 53 53 53
24 24 24 24 23 24 25 26 27 28 29 29 29 29 30 31 32 32 33 35 36 37 37 38 39 40 41 41 42 44 46 47 48 49 50 51 51 52 53 54 54 55 55
24 24 24 24 24 25 26 27 27 28 29 30 30 31 32 32 33 34 35 36 37 38 39 40 41 42 42 43 44 45 46 48 49 50 51 52 53 54 55 56 56 56 57
Wind_Direction
323 320 312 303 281 246 223 216 211 209 205 205 207 208 209 207 206 209 212 216 217 217 216 219 223 220 222 231 238 246 267 277 296 354 25 340 299 289 282 284 288 294 290
319 318 315 309 287 245 221 212 208 207 205 207 206 204 205 204 203 209 210 212 210 208 209 213 216 216 217 225 228 233 244 260 284 314 330 324 287 278 287 287 290 292 296
318 318 314 307 290 250 227 209 208 205 203 205 202 203 205 204 205 207 209 208 207 205 208 211 212 210 210 216 225 234 237 240 257 283 305 315 308 292 297 298 295 292 292
319 320 312 305 289 251 222 207 202 200 196 196 200 202 202 204 205 203 207 205 204 205 208 210 210 209 210 217 228 239 247 252 268 284 296 298 299 298 294 296 296 299 300
316 319 312 296 285 257 221 209 201 196 194 196 200 200 200 203 204 206 206 205 204 208 209 208 211 213 215 223 235 240 244 251 264 279 292 299 300 300 298 297 298 299 299
315 315 312 293 277 252 213 203 197 192 193 195 194 198 204 207 205 205 204 205 207 209 206 208 213 216 221 229 239 241 242 248 260 273 285 294 296 295 294 293 293 293 294
312 313 307 298 278 237 209 196 194 194 194 194 193 198 205 207 207 205 205 206 207 207 208 213 218 223 229 236 243 246 249 254 261 268 276 283 287 290 289 289 289 290 290
303 309 308 297 283 229 202 195 192 196 196 195 197 199 203 205 206 205 204 205 207 210 213 218 224 228 235 242 247 252 258 261 265 269 274 278 282 285 285 286 286 286 287
294 299 305 294 268 236 209 201 195 195 194 194 196 198 201 204 204 203 205 208 211 216 219 224 230 235 241 247 251 255 262 263 265 269 273 275 279 282 282 283 283 283 283
283 287 291 286 256 236 214 205 199 194 196 196 198 200 201 203 204 206 210 215 219 222 226 230 235 241 247 249 253 257 262 264 265 269 273 275 278 280 282 282 282 282 282
273 270 269 271 249 235 223 210 201 196 197 199 202 204 206 208 210 213 217 221 226 230 233 238 242 247 250 252 256 260 264 266 267 271 273 275 277 278 280 281 281 281 281
272 266 260 262 252 240 232 217 203 199 200 204 207 209 211 213 216 218 222 227 231 235 239 243 247 250 253 256 259 263 267 268 270 272 273 274 275 277 278 279 280 282 282
269 261 256 252 248 244 237 223 211 208 208 211 214 216 219 220 223 227 230 234 238 241 244 247 250 254 258 261 263 265 269 270 271 273 274 274 275 276 277 278 279 280 281
267 260 253 245 241 239 236 233 226 218 217 218 220 222 226 231 231 236 237 238 242 246 249 251 254 257 260 262 264 267 269 270 272 273 274 274 275 277 279 280 280 280 280
266 262 254 243 242 242 239 237 232 226 226 227 227 228 231 236 239 243 242 244 248 250 253 254 257 259 263 265 268 268 269 271 273 275 274 274 275 276 278 279 280 280 279
263 261 256 250 248 248 245 242 240 234 233 235 236 236 240 243 244 246 249 252 254 255 256 259 262 264 266 268 270 271 272 273 274 275 277 276 275 275 277 278 279 279 278
255 254 252 253 252 251 247 243 242 241 242 243 244 244 247 249 250 252 255 258 260 261 262 263 265 267 268 269 271 273 273 273 274 275 276 277 277 278 277 277 278 278 278
250 250 251 253 253 253 252 249 248 248 248 248 249 251 253 256 256 256 258 259 261 264 266 267 266 267 268 268 269 270 272 273 274 275 274 275 276 278 277 277 277 277 277
248 248 251 254 255 255 255 256 256 255 256 256 255 257 258 260 261 262 263 265 266 269 271 270 269 271 272 273 273 271 272 272 273 275 275 277 277 277 278 278 278 278 278
251 250 252 254 256 257 259 261 262 262 261 259 259 260 262 264 265 266 269 271 271 272 273 275 276 276 276 276 276 274 274 274 273 274 275 275 277 279 279 278 278 278 278
253 251 251 252 255 259 262 264 265 265 264 263 262 262 264 267 269 271 273 275 275 277 277 278 279 279 279 279 278 276 276 276 275 274 275 276 278 280 280 279 278 278 278
253 253 253 252 256 259 263 266 267 266 266 267 268 268 268 269 272 274 277 276 276 279 280 279 280 279 280 280 279 278 277 277 276 276 276 277 279 279 279 278 278 279 279
251 253 254 254 258 260 264 267 268 269 268 269 272 274 274 274 276 278 278 279 279 278 278 279 279 280 280 281 280 279 279 278 277 277 277 277 278 279 279 278 278 279 279
251 253 254 255 259 262 265 266 268 271 272 274 276 276 277 278 279 280 280 280 280 280 280 281 282 283 282 281 281 279 277 278 277 278 278 277 278 279 279 279 280 280 280
250 253 255 258 263 266 269 271 272 273 275 277 279 278 278 278 280 281 282 282 282 283 283 283 284 285 284 283 282 281 280 279 279 279 279 278 279 280 280 280 280 280 281
251 253 256 261 264 267 269 271 273 275 277 279 281 282 283 285 285 285 285 285 285 285 285 285 285 285 284 284 283 283 283 282 281 280 279 279 280 280 280 280 280 280 281
Height
5835 5832 5830 5828 5827 5826 5827 5829 5832 5836 5839 5843 5848 5852 5855 5859 5862 5865 5867 5869 5871 5873 5875 5876 5878 5879 5880 5880 5881 5881 5881 5882 5882 5882 5882 5882 5883 5883 5883 5882 5882 5882 5882
5833 5830 5827 5826 5824 5823 5824 5826 5828 5832 5836 5840 5844 5848 5852 5856 5859 5862 5865 5867 5870 5872 5874 5875 5877 5878 5879 5880 5880 5881 5881 5882 5882 5882 5882 5882 5883 5882 5882 5882 5882 5881 5881
5832 5829 5826 5824 5822 5821 5821 5823 5825 5828 5833 5837 5841 5845 5849 5853 5856 5860 5863 5865 5868 5870 5872 5874 5875 5877 5878 5879 5880 5880 5881 5881 5881 5881 5882 5882 5881 5881 5881 5881 5881 5880 5880
5830 5827 5824 5822 5821 5820 5820 5821 5823 5826 5830 5835 5839 5843 5846 5851 5854 5858 5861 5864 5866 5869 5871 5873 5874 5876 5877 5878 5879 5879 5880 5880 5880 5881 5881 5881 5881 5881 5881 5880 5880 5879 5879
5828 5826 5823 5822 5820 5819 5819 5820 5822 5825 5829 5833 5837 5840 5844 5848 5851 5855 5858 5861 5864 5867 5869 5871 5873 5874 5876 5877 5878 5878 5879 5879 5880 5880 5880 5880 5880 5879 5879 5879 5879 5878 5877
5827 5825 5822 5821 5819 5818 5818 5819 5820 5824 5827 5831 5834 5838 5841 5845 5849 5852 5856 5859 5862 5865 5867 5869 5871 5873 5874 5875 5876 5877 5878 5878 5879 5879 5879 5879 5878 5878 5878 5877 5877 5876 5876
5826 5824 5822 5820 5818 5817 5818 5819 5820 5823 5826 5829 5833 5837 5840 5844 5847 5850 5854 5857 5860 5863 5865 5868 5870 5871 5873 5874 5875 5876 5876 5877 5877 5878 5877 5877 5877 5876 5876 5875 5875 5874 5873
5825 5824 5822 5820 5818 5818 5818 5819 5820 5823 5826 5829 5832 5835 5838 5842 5845 5848 5852 5855 5858 5861 5864 5866 5868 5869 5870 5871 5872 5873 5874 5875 5875 5875 5875 5875 5874 5874 5873 5873 5872 5871 5871
5824 5823 5822 5820 5819 5818 5818 5819 5821 5823 5825 5828 5830 5834 5837 5840 5844 5847 5851 5854 5857 5859 5861 5864 5866 5867 5868 5869 5870 5870 5871 5872 5872 5872 5872 5872 5871 5871 5870 5870 5869 5869 5867
5823 5823 5821 5820 5820 5819 5819 5819 5820 5823 5825 5827 5830 5832 5836 5839 5843 5846 5849 5852 5854 5857 5859 5861 5863 5864 5864 5865 5866 5867 5868 5868 5868 5868 5868 5868 5867 5867 5866 5866 5865 5864 5864
5822 5822 5821 5821 5820 5820 5819 5819 5820 5822 5824 5827 5829 5831 5834 5837 5841 5844 5847 5849 5851 5854 5856 5858 5859 5860 5860 5861 5862 5863 5863 5864 5864 5864 5863 5863 5863 5862 5861 5861 5860 5859 5858
5820 5821 5821 5820 5820 5820 5820 5820 5820 5822 5824 5826 5828 5830 5832 5835 5838 5841 5843 5846 5848 5850 5852 5854 5855 5855 5856 5857 5858 5858 5859 5859 5859 5858 5858 5857 5857 5856 5856 5855 5854 5853 5852
5819 5819 5819 5819 5819 5819 5819 5820 5820 5821 5823 5825 5827 5829 5831 5833 5835 5838 5840 5842 5844 5846 5848 5849 5850 5850 5851 5852 5852 5853 5853 5853 5852 5852 5851 5851 5850 5849 5849 5848 5847 5846 5845
5817 5817 5817 5817 5818 5818 5818 5819 5819 5820 5821 5822 5824 5827 5829 5831 5833 5835 5836 5838 5840 5841 5843 5844 5844 5845 5846 5846 5846 5846 5846 5846 5845 5845 5844 5844 5843 5842 5841 5841 5840 5839 5837
5814 5814 5815 5815 5816 5816 5816 5817 5818 5819 5820 5820 5822 5824 5826 5828 5830 5831 5832 5834 5835 5836 5837 5838 5838 5839 5839 5839 5839 5839 5839 5838 5838 5837 5836 5835 5834 5834 5833 5832 5831 5830 5828
5811 5812 5812 5812 5813 5814 5814 5815 5816 5816 5818 5819 5820 5821 5823 5824 5825 5827 5828 5829 5830 5830 5831 5832 5832 5832 5832 5832 5832 5832 5831 5830 5829 5829 5828 5827 5825 5824 5823 5822 5821 5820 5818
5808 5809 5809 5810 5810 5811 5811 5812 5813 5814 5814 5815 5816 5818 5819 5819 5820 5821 5822 5823 5824 5824 5824 5825 5825 5825 5824 5824 5824 5823 5822 5821 5820 5819 5818 5817 5816 5814 5812 5811 5810 5809 5808
5804 5805 5805 5806 5807 5807 5807 5808 5809 5810 5811 5811 5812 5813 5814 5815 5815 5816 5816 5816 5817 5817 5817 5816 5816 5816 5815 5814 5814 5813 5812 5811 5810 5809 5807 5806 5805 5803 5802 5801 5799 5798 5796
5799 5800 5801 5802 5802 5803 5804 5804 5805 5806 5806 5807 5807 5808 5808 5809 5809 5810 5809 5809 5810 5809 5808 5807 5807 5806 5805 5804 5803 5802 5801 5801 5800 5798 5797 5795 5794 5792 5790 5789 5788 5786 5784
5794 5795 5796 5797 5798 5798 5799 5800 5800 5800 5801 5801 5802 5802 5802 5803 5803 5803 5802 5802 5801 5801 5800 5799 5798 5796 5795 5795 5793 5792 5791 5789 5788 5787 5785 5784 5782 5780 5778 5777 5775 5774 5772
5788 5790 5790 5791 5792 5793 5794 5794 5794 5794 5794 5794 5794 5795 5795 5795 5795 5795 5795 5794 5793 5792 5791 5789 5788 5787 5785 5784 5782 5780 5779 5778 5776 5775 5773 5771 5769 5767 5765 5763 5762 5760 5758
5782 5783 5784 5786 5787 5787 5788 5788 5788 5788 5788 5788 5788 5788 5788 5788 5787 5787 5786 5785 5784 5782 5781 5780 5778 5776 5774 5772 5770 5768 5767 5765 5764 5762 5760 5758 5757 5754 5752 5750 5748 5746 5744
5776 5777 5778 5780 5781 5782 5782 5782 5782 5782 5782 5782 5781 5781 5780 5780 5779 5778 5777 5776 5774 5772 5770 5769 5767 5765 5763 5761 5759 5757 5755 5753 5751 5749 5747 5745 5743 5741 5738 5736 5734 5732 5729
5769 5771 5772 5773 5774 5775 5775 5775 5775 5775 5775 5774 5773 5773 5772 5771 5770 5769 5767 5766 5764 5762 5760 5758 5756 5754 5751 5749 5747 5745 5743 5741 5738 5736 5733 5731 5728 5726 5723 5721 5718 5716 5713
5762 5764 5765 5766 5767 5767 5768 5768 5768 5768 5767 5766 5766 5765 5764 5763 5761 5760 5758 5756 5754 5751 5749 5747 5744 5742 5740 5737 5735 5733 5730 5727 5724 5721 5719 5716 5714 5711 5708 5705 5702 5700 5697
5755 5756 5757 5758 5759 5760 5760 5760 5760 5760 5759 5758 5757 5756 5755 5753 5751 5749 5747 5745 5743 5740 5738 5735 5733 5730 5727 5725 5721 5719 5716 5712 5709 5706 5703 5700 5698 5695 5693 5690 5686 5683 5680